Hourly Data Report for October 27, 2013

All times are specified in Local Standard Time (LST). Add 1 hour to adjust for Daylight Saving Time where and when it is observed.

EMERSON AUTO
MANITOBA

49°00'00.000" N
97°14'15.000" W
242.00 m
5020881
71560
WEX

Download Data

Hourly Data (October 2013)
Hourly Data Report for October 27, 2013
Temp Definition
°C
Dew Point Temp Definition
°C
Rel Hum Definition
%
Wind Dir Definition
10's deg

Wind Spd Definition
km/h
Visibility Definition
km
Stn Press Definition
kPa
Hmdx Definition


Wind Chill Definition


Weather Definition


TIME
00:00 1.2 -3.0 74 17 20   97.71     LegendNANA
01:00 1.1 -2.5 77 18 19   97.65     LegendNANA
02:00 0.8 -2.3 80 19 13   97.59     LegendNANA
03:00 0.2 -2.3 83 22 6   97.59     LegendNANA
04:00 1.1 -2.2 79 31 15   97.65     LegendNANA
05:00 2.8 -1.7 72 33 26   97.77     LegendNANA
06:00 1.3 -2.0 79 34 20   97.89     LegendNANA
07:00 0.4 -2.4 81 34 22   98.04     LegendNANA
08:00 0.5 -2.4 81 34 24   98.15     LegendNANA
09:00 2.4 -1.6 75 35 26   98.31     LegendNANA
10:00 3.5 -0.9 73 36 32   98.48     LegendNANA
11:00 4.0 -2.0 65 36 32   98.59     LegendNANA
12:00 3.8 -2.0 66 1 37   98.75     LegendNANA
13:00 4.6 -4.0 54 1 33   98.82     LegendNANA
14:00 3.5 -3.0 62 36 43   98.95     LegendNANA
15:00 2.0 -3.7 66 36 39   99.09     LegendNANA
16:00 0.8 -4.5 68 36 37   99.24     LegendNANA
17:00 -0.9 -5.9 69 36 30   99.41   -8 LegendNANA
18:00 -2.1 -7.1 69 36 22   99.52   -8 LegendNANA
19:00 -2.5 -8.3 64 2 24   99.67   -9 LegendNANA
20:00 -3.5 -8.6 68 1 17   99.82   -9 LegendNANA
21:00 -4.0 -8.7 70 2 22   99.95   -11 LegendNANA
22:00 -4.4 -8.7 72 2 19   100.05   -11 LegendNANA
23:00 -5.2 -8.9 75 1 17   100.14   -11 LegendNANA

Notes on Data Quality.

Legend

  • E = Estimated
  • M = Missing
  • NA = Not Available
  • ‡ = Partner data that is not subject to review by the National Climate Archives
Date modified: